Location: Unspecified
(45.3880°N, 0.0000°E)
Time: 06:38:17
(UTC+00:00)

RAPIDEYE 1 - Visible Passes

Search period start: 04 April 2026 00:00
Search period end: 14 April 2026 00:00
Orbit: 536 x 578 km, 97.4° (Epoch: 29 March)

Date Brightness Start Highest point End Pass type
(mag) Time Alt. Az. Time Alt. Az. Time Alt. Az.
4 Apr ? 19:10:36 10° S 19:14:27 62° W 19:18:19 10° NNW visible
5 Apr ? 19:08:29 10° S 19:12:20 66° WSW 19:16:13 10° NNW visible
6 Apr ? 19:06:21 10° S 19:10:13 69° WSW 19:14:07 10° NNW visible
7 Apr ? 19:04:14 10° S 19:08:06 74° WSW 19:12:00 10° NNW visible
8 Apr ? 19:02:06 10° S 19:05:59 78° WSW 19:09:53 10° NNW visible
